Flag for U.S.A. Weather past 2 weeks in Reston, Virginia, U.S.A.

Now
75 °F

Mostly cloudy.


Feels Like: 76 °F
Forecast: 71 / 87 °F
Wind: 6 mph from Southwest

Location: Washington-Dulles International Airport

Current Time: Aug 31, 2015 at 1:50:18 AM

Latest Report: Aug 31, 2015 at 12:52 AM


Visibility: 10 mi

Pressure: 30.08 "Hg

Humidity: 74%

Dew point: 66 °F

Location of RestonLocation

Historic Weather in Reston — Graph

°F

Reston temperature yesterday

Maximum temperature yesterday: 86 °F (at 3:52 PM)
Minimum temperature yesterday: 64 °F (at 5:52 AM)
Average temperature yesterday: 76 °F

Past Weeks' High & Low Weather Summary

 TemperatureHumidityPressure
High92 °F (Aug 16, 3:52 PM)100% (Aug 20, 9:52 PM)30.22 "Hg (Aug 20, 9:52 PM)
Low56 °F (Aug 23, 4:52 AM)34% (Aug 22, 3:52 PM)29.80 "Hg (Aug 24, 3:52 PM)
Average74 °F68%30.04 "Hg
* Reported Aug 16 12:52 AM — Aug 31 12:52 AM, Reston, Weather by CustomWeather, © 2015

Note: Actual official high and low records may vary slightly from our data, if they occured in-between our weather recording intervals... More about our weather records

Advertising

Reston weather history for previous 24 hours

 ConditionsComfort  
Time TempWeatherWind HumidityBarometerVisibility
12:52 AM
Mon, Aug 31
75 °FMostly cloudy.6 mph74%30.08 "Hg10 mi
11:52 PM
Sun, Aug 30
77 °FMostly cloudy.8 mph69%30.08 "Hg10 mi
10:52 PM77 °FMostly cloudy.7 mph71%30.08 "Hg10 mi
9:52 PM78 °FMostly cloudy.5 mph66%30.08 "Hg10 mi
8:52 PM79 °FOvercast.7 mph62%30.07 "Hg10 mi
7:52 PM80 °FPartly sunny.5 mph60%30.06 "Hg10 mi
6:52 PM82 °FBroken clouds.8 mph60%30.06 "Hg10 mi
5:52 PM83 °FBroken clouds.7 mph57%30.06 "Hg10 mi
4:52 PM86 °FBroken clouds.7 mph48%30.05 "Hg10 mi
3:52 PM86 °FScattered clouds.7 mph48%30.06 "Hg10 mi
2:52 PM85 °FBroken clouds.No wind53%30.09 "Hg10 mi
1:52 PM81 °FBroken clouds.5 mph58%30.10 "Hg10 mi
12:52 PM81 °FMostly cloudy.No wind58%30.12 "Hg10 mi
11:52 AM79 °FPartly sunny.No wind62%30.13 "Hg10 mi
10:52 AM76 °FPartly sunny.3 mph69%30.13 "Hg10 mi
9:52 AM74 °FPartly sunny.3 mph71%30.13 "Hg10 mi
8:52 AM70 °FMostly cloudy.3 mph81%30.12 "Hg10 mi
7:52 AM68 °FPartly sunny.3 mph87%30.12 "Hg10 mi
6:52 AM65 °FPassing clouds.3 mph91%30.11 "Hg9 mi
5:52 AM64 °FPassing clouds.No wind94%30.09 "Hg10 mi
4:52 AM67 °FPassing clouds.No wind87%30.09 "Hg10 mi
3:52 AM69 °FClear.7 mph81%30.09 "Hg10 mi
2:52 AM68 °FClear.6 mph87%30.09 "Hg10 mi
1:52 AM69 °FClear.5 mph84%30.10 "Hg10 mi
Weather by CustomWeather, © 2015

See weather overviewHow to use our weather pages